Location: Ecklingerode
(51.5036°N, 10.3122°E)
Time: 01:49:01
(UTC+00:00)

Cosmos 1812 Rocket - Pass Details

Date: 29 October 2020
Orbit: 605 x 633 km, 82.5° (Epoch: 23 November)

Event Time Altitude Azimuth Distance (km) Brightness Sun altitude
Rises 17:22:09 0° 161° (SSE) 2,889 6.9 -13.8°
Reaches altitude 10° 17:24:33 10° 151° (SSE) 1,983 5.9 -14.2°
Maximum altitude 17:28:24 31° 90° (E) 1,095 4.2 -14.8°
Drops below altitude 10° 17:32:15 10° 28° (NNE) 1,982 5.8 -15.4°
Sets 17:34:39 0° 19° (NNE) 2,888 6.8 -15.7°
